Simultaneous Nadir Overpasses (SNOs) Predictions

Prediction of SNOs between GOES-17 and NOAA-19 Satellite Orbit:

Table of predicted SNOs for the next 14.0 days since TLE Epoch: 4/1/2023
Index Date Time (GOES-17) GOES-17 Lat,Lon NOAA-19 Lat,Lon Distance(km) Time Diff (sec)
1 04/02/2023 15:32:27 -0.00,-104.78 0.48,-106.76 226.83 80
2 04/03/2023 15:23:08 -0.01,-104.78 -0.25,-103.85 106.94 80
3 04/04/2023 15:11:09 -0.01,-104.78 -0.91,-100.93 440.66 80
4 04/06/2023 03:43:31 0.01,-104.75 -0.88,-108.69 448.46 80
5 04/07/2023 03:31:32 0.01,-104.76 -0.20,-105.77 114.75 80
6 04/08/2023 03:16:52 0.01,-104.76 0.48,-102.85 218.99 80
7 04/10/2023 15:36:55 -0.01,-104.79 0.64,-107.60 320.50 80
8 04/11/2023 15:27:35 -0.01,-104.79 -0.04,-104.68 12.82 80
9 04/12/2023 15:15:36 -0.01,-104.79 -0.73,-101.76 346.06 80
